Location: La Tacherie
(47.4308°N, 1.7436°W)
Time: 19:56:03
(UTC+00:00)

Daily predictions for brighter satellites

Satellite Brightness Start Highest point End
(mag) Time Altitude Azimuth Time Altitude Azimuth Time Altitude Azimuth
Cosmos 2322 4.4 20:39:14 10° NNW 20:44:38 43° NE 20:50:00 10° SE
Resurs 01 Rocket 3.5 20:42:08 10° SSW 20:45:59 30° W 20:49:52 10° NNW
Cosmos 1356 Rocket 3.4 20:42:09 10° S 20:46:19 72° E 20:50:31 10° NNE
Meteor 1-23 Rocket 4.3 20:41:28 10° S 20:47:10 88° E 20:52:58 10° NNE
Cosmos 1850 Rocket 4.3 20:43:25 10° SSW 20:48:37 73° WNW 20:53:49 10° NNE
Cosmos 2322 Rocket 3.0 20:43:52 10° NW 20:49:20 50° WSW 20:54:48 10° S
USA 234 4.1 20:45:22 10° ENE 20:50:44 26° SE 20:56:03 10° S
Cosmos 2333 4.4 20:44:59 10° NNW 20:50:48 84° WSW 20:56:35 10° SSE
Cosmos 807 4.4 20:48:31 10° S 20:51:23 45° E 20:54:11 10° NNE
EXPRESS MD2 3.3 20:53:34 10° W 20:56:34 46° N 20:58:47 10° ENE
Cosmos 2297 Rocket 4.0 20:54:45 10° ESE 20:57:10 13° E 20:59:35 10° ENE
Cosmos 1758 3.6 20:53:25 10° NNW 20:57:21 70° W 21:01:16 10° S
ARGOS Delta rocket 3.9 20:56:22 10° S 21:00:44 69° W 21:05:08 10° NNW
Cosmos 1300 3.0 20:57:49 10° NNW 21:01:21 61° W 21:04:51 10° S
Cosmos 1908 Rocket 4.5 20:59:18 10° N 21:03:14 33° ENE 21:07:02 11° SE
MOS 1 Rocket 3.8 20:59:09 10° SSE 21:04:22 59° ENE 21:09:25 10° N
Cosmos 2219 Rocket 2.3 21:00:11 10° NNW 21:05:54 86° WSW 21:11:35 10° SSE
Cosmos 1814 Rocket 4.2 21:01:27 10° NNW 21:06:47 74° WSW 21:12:06 10° SSE
ATLAS CENTAUR R/B 3.7 21:04:45 10° W 21:07:43 25° NW 21:10:49 10° NNE
Cosmos 2315 Rocket 4.3 21:01:48 10° NNW 21:08:12 76° W 21:14:33 10° S
ERS-1 Rocket 3.0 21:04:13 10° SSE 21:09:14 87° ENE 21:14:18 10° NNW
Cosmos 1570 Rocket 4.4 21:06:51 10° NNW 21:12:09 56° ENE 21:17:02 12° SE
Terra 1.8 21:07:51 10° SSE 21:12:34 80° ENE 21:17:18 10° NNW
SPOT 5 3.4 21:11:18 10° S 21:15:31 50° W 21:19:57 10° NNW
Meteor 1-4 Rocket 2.1 21:17:11 10° SSW 21:20:10 84° WNW 21:23:11 10° N
Aureole 3 4.0 21:19:46 10° S 21:24:14 86° W 21:29:56 10° N
Landsat 4 3.4 21:24:23 14° SSE 21:27:17 75° ENE 21:30:43 10° N
NOSS 0 Rocket 4.4 21:23:51 10° NNW 21:30:00 56° NE 21:35:24 14° SE
COSMOS 2428 2.8 21:26:40 10° NNW 21:32:25 75° ENE 21:37:11 15° SSE
Cosmos 1953 2.1 21:29:07 10° N 21:32:56 76° E 21:36:01 15° SSE
CZ-4C R/B 2.3 21:29:26 10° S 21:33:30 38° ESE 21:38:27 10° NE
SJ 16-02 2.4 21:29:41 10° SW 21:33:51 47° WNW 21:38:03 10° N
Cosmos 1455 1.9 21:31:05 10° N 21:34:36 72° E 21:37:14 17° SSE
Cosmos 2360 Rocket 3.8 21:29:55 10° NW 21:34:42 29° WSW 21:39:27 10° SSW
SPOT 3 Rocket 3.6 21:30:22 12° SSE 21:35:13 87° WSW 21:40:26 10° NNW
ATLAS 2AS CENTAUR R/B 3.9 21:33:13 10° NW 21:39:05 32° WSW 21:44:47 10° S
USA 245 4.4 21:35:09 10° S 21:39:10 51° W 21:44:12 10° NNW
Spot 2 Rocket 3.7 21:34:54 11° S 21:39:51 68° WSW 21:44:57 10° NNW
Okean O Rocket 4.4 21:39:02 10° WSW 21:40:32 11° W 21:42:01 10° WNW
Nadezhda 1 Rocket 4.3 21:37:33 10° N 21:43:42 55° ENE 21:48:28 17° SSE
Cosmos 1703 Rocket 3.6 21:41:35 12° S 21:45:37 69° E 21:50:03 10° NNE
Cosmos 1242 Rocket 1.6 21:44:43 17° S 21:46:39 82° E 21:49:22 10° NNE
Okean 1-7 3.2 21:43:29 10° SSW 21:47:47 75° W 21:52:07 10° N
Cosmos 1315 Rocket 3.3 21:45:23 10° SSW 21:49:19 61° WNW 21:53:18 10° N
Cosmos 2208 Rocket 4.0 21:49:31 10° NNW 21:54:45 89° WSW 21:58:30 19° SSE
SeaSat 1 2.7 21:52:49 17° SSE 21:56:33 64° WSW 22:01:27 10° NW
Landsat 5 3.4 21:54:36 10° NNE 21:58:45 73° ESE 22:02:11 15° S
COSMOS 2455 2.8 21:53:18 10° SSW 21:59:16 68° ESE 22:05:16 10° NE
H-2A R/B 4.5 21:56:48 11° ESE 21:59:33 18° ENE 22:02:25 10° NNE
Cosmos 1408 2.7 22:02:06 29° SE 22:03:03 39° E 22:05:53 10° NNE
Cosmos 158 Rocket 4.0 21:58:15 10° NNW 22:03:33 80° WSW 22:07:05 20° SSE
Ariane Rocket 3.9 22:00:38 11° S 22:05:15 44° W 22:10:07 10° NNW
Cosmos 405 Rocket 4.3 22:05:04 10° NNE 22:08:09 23° ENE 22:09:55 17° ESE
SL-4 R/B 2.4 22:04:57 10° WNW 22:08:41 44° SW 22:10:36 25° SSE
Cosmos 2333 Rocket 4.5 22:08:52 10° WNW 22:12:17 16° W 22:15:41 10° SW
BlueWalker 3 3.1 22:09:04 10° W 22:12:40 44° NNW 22:16:16 10° ENE
SL-16 R/B 3.8 22:08:32 10° N 22:13:17 26° NE 22:18:00 10° ESE
Cosmos 1486 Rocket 3.9 22:08:50 13° SSW 22:13:32 74° ESE 22:18:45 10° NNE
CENTAUR R/B 3.3 22:11:56 21° SSE 22:14:17 28° ESE 22:19:45 10° NE
Meteor 2-5 Rocket 4.4 22:11:13 21° SSE 22:14:37 39° E 22:19:57 10° NNE
Cosmos 2237 Rocket 2.3 22:10:21 10° NNW 22:16:01 68° ENE 22:19:45 22° SE
Cosmos 2227 Rocket 3.0 22:18:48 22° SSE 22:21:20 32° ESE 22:26:16 10° NE
Cosmos 1980 3.7 22:24:39 10° NNW 22:30:22 90° ENE 22:33:48 25° SSE
Cosmos 2242 Rocket 3.6 22:31:20 25° S 22:34:00 82° E 22:38:35 10° N
Cosmos 1354 Rocket 4.2 22:31:07 24° S 22:34:07 54° ESE 22:39:17 10° NNE
USA 234 3.2 22:27:46 10° NE 22:34:21 83° SE 22:40:54 10° SW
Cosmos 1709 Rocket 4.0 22:33:28 21° S 22:37:57 79° E 22:44:18 10° N
Cosmos 2297 Rocket 2.1 22:35:31 15° SSW 22:40:15 81° ESE 22:45:56 10° NNE
Cosmos 1782 Rocket 4.4 22:40:46 10° NNW 22:44:51 42° W 22:47:21 21° SSW
Cosmos 2219 Rocket 4.4 22:46:05 10° WNW 22:48:57 14° W 22:51:49 10° SW
Cosmos 371 Rocket 3.7 22:45:02 12° SW 22:49:25 61° WNW 22:54:13 10° NNE
Terra 4.3 22:48:33 10° WSW 22:50:44 13° W 22:52:56 10° WNW
Cosmos 1300 Rocket 4.4 22:47:44 10° NNW 22:51:50 42° W 22:54:07 23° SSW
Cosmos 2219 4.1 22:51:46 26° SE 22:53:37 31° ESE 22:58:31 10° NE
Cosmos 773 Rocket 4.3 22:49:29 10° NNW 22:54:31 55° WSW 22:57:07 27° S
USA 281 3.2 22:50:46 24° SSE 22:54:58 83° ENE 23:01:35 10° NNW
Meteor 1-24 Rocket 3.7 22:52:46 25° S 22:56:11 82° E 23:01:44 10° NNE
Cosmos 1703 3.2 22:55:32 33° SSW 22:57:01 70° W 23:00:42 10° N
PSLV R/B 3.7 22:53:43 10° NNE 22:57:42 77° ESE 22:59:11 37° S
ARIANE 5 R/B 2.7 22:57:21 33° S 22:59:13 68° WSW 23:03:36 10° NNW
GP-B 4.3 22:57:48 10° NNW 23:01:52 37° W 23:04:43 17° SW
Cosmos 2263 Rocket 3.3 23:01:07 23° SE 23:02:39 26° ESE 23:07:13 10° NE
EXPRESS MD2 3.8 23:01:51 10° WNW 23:02:53 22° W 23:02:53 22° W
Cosmos 2084 Rocket 4.2 23:03:32 10° WSW 23:07:44 52° NW 23:11:47 10° NNE
Cosmos 1378 Rocket 3.5 23:10:39 38° S 23:12:15 74° E 23:16:40 10° NNE
Cosmos 1674 Rocket 3.5 23:14:09 40° SSE 23:15:36 67° E 23:19:53 10° NNE
Cosmos 1263 4.4 23:14:38 10° N 23:17:44 53° E 23:17:58 51° E
NOSS 3-2 (A) 3.4 23:18:38 33° S 23:20:34 48° ESE 23:26:21 10° NE
Cosmos 1777 Rocket 4.5 23:17:07 17° SW 23:21:10 59° WNW 23:26:24 10° NNE
Cosmos 2154 Rocket 4.5 23:18:32 28° SSE 23:21:34 48° E 23:27:35 10° NNE
CZ-4C R/B 3.3 23:17:19 10° WSW 23:21:48 40° NW 23:27:23 10° NNE
Cosmos 1825 1.8 23:23:13 59° SSE 23:23:41 69° E 23:27:06 10° NNE
PSLV R/B 4.2 23:25:59 10° NNE 23:29:55 38° E 23:30:49 34° SE
Cosmos 2151 Rocket 3.6 23:25:56 10° NNW 23:30:19 68° W 23:31:48 39° SSW
NOSS 3-2 (C) 4.2 23:30:23 25° SE 23:31:24 27° ESE 23:36:15 10° ENE
Cosmos 1538 Rocket 4.0 23:27:14 10° NNW 23:32:29 83° ENE 23:34:51 34° SSE
Cosmos 1818 4.0 23:27:23 10° NNW 23:32:51 61° NE 23:36:27 21° SE
H-2A R/B 2.9 23:32:47 37° SSW 23:34:07 53° W 23:38:14 10° NNW
Cosmos 2098 Rocket 4.4 23:28:37 10° NNW 23:34:55 53° W 23:38:07 26° SSW
Okean 2 Rocket 3.2 23:30:49 10° NNW 23:35:17 67° W 23:36:50 39° SSW
Cosmos 1892 2.5 23:34:58 53° SW 23:35:40 72° W 23:39:12 10° N
Cosmos 1328 3.7 23:41:31 51° SSE 23:42:20 70° E 23:46:12 10° NNE
Cosmos 405 Rocket 4.0 23:40:00 10° NNW 23:43:16 28° W 23:44:11 25° WSW
ALOS 2 2.6 23:42:15 42° S 23:43:38 69° WSW 23:48:02 10° NNW
Cosmos 332 Rocket 4.5 23:42:22 21° SW 23:45:28 51° WNW 23:50:16 10° NNE
Aureole 1 Rocket 3.1 23:48:39 47° SSE 23:49:36 62° ESE 23:54:27 10° NNE
Cosmos 1937 Rocket 4.3 23:48:31 30° SE 23:50:08 37° ESE 23:54:55 10° NE
BlueWalker 3 3.7 23:47:57 10° WNW 23:51:24 33° N 23:54:49 10° ENE
